SCP
1 1 1 1 1 1 1 1 1 1 0 0 0 0 0 0 0 0 0 0 0 0 0 0 0 0 0 0 0 0 0 1 1 1 1 1 1 1 1 0 0 0 0
1 1 1 1 1 1 1 1 1 1 1 0 0 0 0 0 0 0 0 0 0 0 0 0 0 0 0 0 0 0 0 1 1 1 1 1 1 1 1 1 0 0 0
1 1 1 1 1 1 1 1 1 1 1 0 0 0 0 0 0 0 0 0 0 0 0 0 0 0 0 0 0 0 1 1 1 1 1 1 1 1 1 1 1 1 1
1 1 1 1 1 1 1 1 1 1 1 1 0 0 0 0 0 0 0 0 0 0 0 0 0 0 0 0 0 0 1 1 1 1 1 1 1 1 1 1 1 1 1
1 1 1 1 1 1 1 1 1 1 1 1 1 0 0 0 0 0 0 0 0 0 0 0 0 0 0 0 0 0 0 1 1 1 1 1 1 1 1 1 1 1 1
1 1 1 1 1 1 1 1 1 1 1 1 1 1 0 0 0 0 0 0 0 0 0 0 0 0 0 0 0 0 0 0 1 1 1 1 1 1 1 1 1 1 1
1 1 1 1 1 1 1 1 1 1 1 1 1 1 1 0 0 0 0 0 0 0 0 0 0 0 0 0 0 0 0 0 1 1 1 1 1 1 1 1 1 1 1
1 1 1 1 1 1 1 1 1 1 1 1 1 1 1 0 0 0 0 0 0 0 0 0 0 0 0 0 0 0 0 0 0 1 1 1 1 1 1 1 1 1 1
1 1 1 1 1 1 1 1 1 1 1 1 1 1 1 0 0 0 0 0 0 0 0 0 0 0 0 0 0 0 0 0 0 0 0 0 0 0 0 0 1 1 1
1 1 1 1 1 1 1 1 1 1 1 1 1 1 1 0 0 0 0 0 0 0 0 0 0 0 0 0 0 0 0 0 0 0 0 0 0 0 0 0 0 1 1
1 1 1 1 1 1 1 1 1 1 1 1 1 1 1 0 0 0 0 0 0 0 0 0 0 0 0 0 0 0 0 0 0 0 0 0 0 0 0 0 0 1 1
1 1 1 1 1 1 1 1 1 1 1 1 0 0 1 0 0 0 0 0 0 0 0 0 0 0 0 0 0 0 0 0 0 0 0 0 0 0 1 1 1 1 1
1 1 2 1 1 1 1 1 1 1 1 1 1 0 0 0 0 0 0 0 0 0 0 0 0 0 0 0 0 0 0 0 0 0 0 1 1 1 1 1 1 1 1
1 1 1 1 1 1 1 1 1 1 1 1 1 1 0 0 0 0 0 1 1 0 0 0 0 0 0 0 0 0 0 0 0 0 0 1 1 1 1 1 0 0 0
1 1 1 1 1 1 1 1 1 1 1 1 1 1 1 0 0 0 0 1 1 1 0 0 0 0 0 0 0 0 0 0 0 0 0 0 0 0 0 0 0 0 0
0 1 1 1 1 1 1 1 1 1 1 1 1 1 1 0 0 0 0 1 1 1 0 0 0 0 0 0 0 0 0 0 0 0 0 0 0 0 0 0 0 0 0
0 0 0 1 1 1 1 1 1 1 0 0 1 1 1 0 0 0 0 1 1 1 0 0 0 0 0 0 0 0 0 0 0 0 0 0 0 0 0 0 0 0 0
0 0 0 0 1 1 1 1 1 0 0 0 0 1 1 1 1 0 0 0 1 1 0 0 0 0 0 0 0 0 0 0 0 0 0 0 0 0 0 0 0 0 0
0 0 0 0 0 0 1 1 1 0 0 0 0 0 1 1 1 0 0 0 0 0 0 0 0 0 0 0 0 0 0 0 0 0 0 0 0 0 0 0 0 0 0
0 0 0 0 0 0 0 0 0 0 0 0 0 0 0 0 0 0 0 0 0 0 0 0 0 0 0 0 0 0 0 0 0 0 0 0 0 0 0 0 0 0 0
0 0 0 0 0 0 0 0 0 0 0 0 0 0 0 0 0 0 0 0 0 0 0 0 0 0 0 0 0 0 0 0 0 0 0 0 0 0 0 0 0 0 0
0 0 0 0 0 0 0 0 0 0 0 0 0 0 0 0 0 0 0 0 0 0 0 0 0 0 0 0 0 0 0 0 0 0 0 0 0 0 0 0 0 0 0
0 0 0 0 0 0 0 0 0 0 0 0 0 0 0 0 0 0 0 0 0 0 0 0 0 0 0 0 0 0 0 0 0 0 0 0 0 0 0 0 0 0 0
0 0 0 0 0 0 0 0 0 0 0 0 0 0 0 0 0 0 0 0 0 0 0 0 0 0 0 0 0 0 0 0 0 0 0 0 0 0 0 0 0 0 0
0 0 0 0 0 0 0 0 0 0 0 0 0 0 0 0 0 0 0 0 0 0 0 0 0 0 0 0 0 0 0 0 0 0 0 0 0 0 0 0 0 0 0
0 0 0 0 0 0 0 0 0 0 0 0 0 0 0 0 0 0 0 0 0 0 0 0 0 0 0 0 0 0 0 0 0 0 0 0 0 0 0 0 0 0 0
Wind_Speed
4 4 4 4 4 4 5 5 5 5 5 4 4 4 4 4 4 3 2 7 8 8 8 8 8 8 8 7 7 6 5 5 5 5 5 5 5 5 6 6 6 6 6
4 5 5 5 5 5 5 5 6 5 5 4 5 5 5 4 4 4 3 4 7 8 8 9 8 8 8 8 7 7 7 7 7 6 6 7 6 6 7 7 7 7 7
5 5 5 5 5 5 5 4 5 4 4 4 5 5 4 5 4 4 4 3 4 6 7 9 9 8 8 8 8 8 7 7 7 7 7 7 7 7 7 7 7 7 7
5 4 4 5 5 4 5 5 5 4 4 4 3 3 3 4 5 4 4 3 3 3 5 7 7 8 8 8 8 8 7 7 7 7 8 8 8 8 8 8 8 8 8
4 4 4 4 5 4 4 5 4 4 4 4 4 3 3 3 3 3 4 4 4 4 3 5 7 7 6 7 8 8 8 7 7 7 8 8 8 9 9 9 9 9 9
4 4 3 4 4 4 4 4 4 4 3 3 3 3 2 3 3 3 4 3 3 4 4 3 3 4 6 6 7 8 9 8 8 8 8 9 9 9 10 10 10 10 10
3 4 3 3 4 4 4 5 4 4 3 2 2 1 2 2 3 3 3 3 3 3 3 3 3 2 3 6 7 8 9 10 10 10 9 10 10 10 10 10 11 11 11
2 3 3 3 4 4 4 4 3 3 2 3 3 2 1 2 2 3 3 3 3 2 3 3 3 3 3 2 4 7 8 10 11 11 11 11 11 11 12 12 12 12 11
1 2 3 3 3 4 4 4 4 4 3 2 2 3 3 4 2 2 3 3 3 2 2 2 3 4 4 3 3 5 8 10 12 13 13 12 12 13 13 13 13 13 12
1 1 1 2 2 3 3 4 4 3 4 3 2 1 1 2 2 2 2 2 2 3 3 3 4 4 4 3 4 6 8 9 12 14 14 14 14 14 15 14 14 14 13
0 0 1 1 2 2 2 3 3 3 3 3 3 2 1 1 1 2 3 2 2 3 4 4 4 3 3 3 3 5 8 10 13 14 15 16 16 16 16 15 16 15 14
1 1 0 1 2 2 2 3 3 3 3 3 2 2 2 2 2 2 2 2 3 3 4 4 3 3 3 4 5 7 9 11 13 15 16 16 16 15 15 16 16 16 15
1 1 0 1 1 2 2 2 2 2 3 3 3 2 2 2 1 1 2 2 3 3 3 3 3 3 3 3 4 8 9 11 13 15 17 17 15 15 15 16 16 16 15
1 1 1 1 0 1 1 2 2 2 2 2 2 2 2 2 2 2 2 2 3 3 3 4 2 3 3 3 6 8 7 11 13 14 16 16 14 14 14 15 15 15 15
1 0 1 1 0 1 1 1 1 2 2 2 2 2 2 2 2 2 2 2 3 4 5 4 2 2 3 3 6 5 5 10 12 13 14 14 14 14 14 14 15 15 14
1 0 1 1 1 1 1 1 0 1 1 1 1 1 2 2 2 2 2 2 3 4 5 3 4 4 4 5 7 6 7 11 12 13 13 12 13 14 14 14 14 14 14
1 1 1 1 1 1 1 1 1 1 1 1 2 2 3 2 3 2 2 2 3 3 6 5 3 3 4 5 6 5 6 6 7 12 13 13 14 14 14 14 14 14 13
1 1 1 1 1 1 1 1 1 1 1 2 3 3 3 3 4 3 3 3 4 4 5 7 4 3 5 6 6 6 5 6 6 10 12 13 13 13 13 13 14 13 13
1 1 1 1 1 0 0 1 1 1 2 2 3 3 3 3 4 3 4 4 4 4 4 5 6 4 4 4 5 5 5 5 6 8 11 12 13 13 13 13 14 13 13
1 1 1 1 0 0 0 1 1 1 2 2 2 3 3 3 4 4 4 4 4 4 4 5 5 4 4 4 4 4 6 4 6 6 8 9 10 12 12 13 13 13 13
1 1 1 1 1 1 0 0 1 1 1 2 2 2 2 3 4 4 3 3 3 3 4 4 5 4 4 4 4 4 6 6 6 4 4 5 5 5 7 10 11 11 12
1 1 1 1 1 1 2 2 1 1 1 2 2 2 3 3 4 6 6 6 5 4 5 5 5 6 6 5 5 5 5 6 6 2 4 6 4 6 6 5 10 11 11
0 0 0 0 1 2 2 2 2 1 1 2 3 3 3 3 5 4 5 6 6 8 8 6 7 7 7 6 6 7 6 6 7 5 4 7 5 6 6 7 11 12 11
0 0 1 1 1 2 3 3 3 1 1 2 3 3 3 3 4 4 3 3 4 4 6 5 5 6 6 6 6 7 7 7 6 4 4 6 5 6 6 6 10 12 12
1 1 1 1 1 3 4 3 3 1 1 2 2 2 2 3 5 6 3 4 4 4 6 7 8 8 9 9 7 4 4 5 6 5 3 4 4 5 6 6 7 10 10
1 1 1 1 1 2 4 4 3 0 1 2 2 2 4 5 6 7 3 3 5 5 5 5 6 7 6 6 7 4 4 5 5 4 2 2 3 4 5 3 4 4 6
Wind_Direction
195 190 189 187 186 180 181 182 185 190 197 204 209 210 213 213 211 206 214 211 210 213 213 214 220 226 233 237 242 247 251 252 257 261 269 276 280 286 293 294 293 288 287
195 189 189 191 191 186 183 187 191 194 201 204 214 214 213 213 213 206 206 212 215 215 218 221 228 234 238 243 247 250 254 256 258 262 268 271 272 279 285 287 283 283 282
197 192 189 191 195 189 184 185 190 192 200 209 217 216 209 209 206 206 204 203 212 219 222 226 231 236 241 246 251 256 258 262 264 268 272 273 273 278 282 284 280 282 281
202 192 192 195 192 188 186 189 189 192 200 203 209 214 209 208 209 208 205 206 206 214 223 229 236 241 245 250 256 262 264 264 268 272 274 274 273 275 278 282 281 278 279
210 195 195 197 188 188 194 196 193 190 195 200 205 211 210 207 214 211 212 211 209 209 212 227 236 245 253 255 259 266 270 270 274 276 277 275 274 276 276 279 279 276 275
211 196 193 197 187 185 196 201 196 191 190 192 201 213 220 218 212 212 218 217 213 213 212 216 223 243 250 259 262 269 275 275 276 279 282 282 279 275 275 278 280 276 272
219 195 193 191 185 188 197 196 193 186 191 164 158 237 273 239 225 221 215 214 217 218 212 218 217 224 249 258 264 273 276 277 275 277 278 280 279 276 276 279 280 277 272
233 208 190 187 189 188 193 192 183 182 187 168 158 156 252 279 255 226 216 210 217 215 218 226 225 224 235 239 264 271 275 276 277 277 277 276 275 276 275 275 278 279 273
244 214 194 182 186 189 194 195 186 183 190 190 168 164 182 221 256 261 227 210 213 218 231 235 237 240 239 237 247 260 269 274 275 275 276 275 275 275 276 277 275 276 274
258 211 191 179 177 185 189 194 193 188 180 191 202 214 198 163 182 252 272 232 224 232 239 252 243 241 239 241 254 271 276 276 275 275 275 275 276 274 275 275 277 275 271
303 154 195 179 181 184 186 183 185 184 186 188 190 193 210 229 183 195 246 259 263 242 237 243 242 242 239 242 245 269 281 277 276 278 277 277 277 276 274 275 273 272 271
332 48 151 209 196 183 185 185 184 184 191 190 193 192 186 190 198 203 233 250 259 256 252 240 233 240 246 243 257 278 277 275 275 276 277 278 279 280 279 277 276 273 271
301 297 212 207 214 187 178 174 174 182 183 184 198 204 203 220 193 191 231 255 261 270 263 245 232 239 248 246 264 279 274 275 275 275 275 277 281 283 281 278 276 277 272
257 258 178 173 174 178 176 162 169 186 171 179 191 196 204 229 230 213 206 222 263 261 253 257 259 239 253 263 275 281 274 278 278 276 276 278 281 282 282 278 276 276 273
294 253 163 135 135 128 129 125 168 200 173 178 195 206 217 230 237 240 232 218 224 254 258 252 254 265 276 274 281 275 275 279 281 279 279 281 282 282 278 277 275 273 272
335 46 89 97 85 80 85 110 164 208 185 196 203 213 224 233 240 238 237 240 232 240 260 252 253 280 283 289 288 279 270 283 279 279 278 279 282 281 278 276 272 271 269
8 24 57 74 78 87 103 125 196 188 196 216 225 225 239 237 234 240 237 238 241 240 261 274 264 278 276 274 282 274 273 269 272 277 278 277 278 278 277 276 272 270 267
27 33 54 77 88 94 123 162 209 207 208 227 234 233 243 244 239 240 236 237 240 238 253 275 281 275 270 272 273 275 285 284 276 281 280 280 279 278 276 276 274 269 265
31 39 61 73 73 85 134 199 221 228 230 233 235 234 243 243 248 250 246 245 244 251 246 267 276 271 273 281 286 285 285 279 284 285 282 279 279 282 283 280 275 271 267
37 29 36 48 354 321 247 244 237 250 252 252 249 245 244 242 245 249 255 254 257 258 257 264 274 280 280 285 281 288 293 285 287 290 281 282 284 284 283 283 279 273 267
21 32 41 24 356 351 340 303 273 279 267 272 274 267 264 266 265 261 268 264 261 265 270 272 275 280 280 288 281 281 285 293 284 275 278 275 276 271 272 278 279 276 272
13 41 45 20 345 338 340 331 339 283 263 262 281 289 282 274 279 282 286 285 280 273 274 273 280 281 281 280 287 287 289 297 292 270 288 287 272 268 267 265 277 278 275
16 24 358 349 318 314 326 333 338 313 263 257 261 271 288 295 291 278 285 292 290 287 281 277 276 278 283 284 282 282 280 280 279 284 288 283 277 268 269 274 280 277 275
342 294 326 332 317 315 321 321 325 313 262 264 264 261 268 286 294 296 290 292 286 286 288 283 274 281 286 288 278 278 276 280 284 275 252 273 281 277 282 276 276 273 274
319 312 332 320 309 308 324 328 329 278 277 288 292 299 297 286 307 312 306 292 296 299 310 306 301 299 300 302 302 299 297 295 293 287 259 259 278 287 278 270 272 274 278
262 288 311 311 308 311 328 334 340 321 325 319 325 330 323 318 319 321 314 297 296 299 305 309 309 311 306 303 307 295 282 287 294 285 254 267 282 300 293 268 264 269 273